Flag for Brazil Weather past 2 weeks in Recife, Pernambuco, Brazil

Now
82 °F

Passing clouds.


Feels Like: 88 °F
Forecast: N/A
Wind: 9 mph from East

Location: Recife Aeroporto

Current Time: Mar 2, 2015 at 8:11:43 PM

Latest Report: Mar 2, 2015 at 7:00 PM


Visibility: N/A

Pressure: 29.89 "Hg

Humidity: 74%

Dew point: 73 °F

Location of RecifeLocation

Historic Weather in Recife — Graph

°F

Recife temperature yesterday

Maximum temperature yesterday: 88 °F (at 11:00 AM)
Minimum temperature yesterday: 77 °F (at 6:00 AM)
Average temperature yesterday: 83 °F

Past Weeks' High & Low Weather Summary

 TemperatureHumidityPressure
High88 °F (Feb 16, 10:00 AM)94% (Feb 17, 5:00 PM)30.01 "Hg (Feb 17, 5:00 PM)
Low75 °F (Feb 20, 5:00 AM)55% (Feb 25, 1:00 PM)29.80 "Hg (Feb 22, 3:00 PM)
Average82 °F76%29.89 "Hg
* Reported Feb 15 7:00 PM — Mar 2 7:00 PM, Recife, Weather by CustomWeather, © 2015

Note: Actual official high and low records may vary slightly from our data, if they occured in-between our weather recording intervals... More about our weather records

Advertising

Recife weather history for previous 24 hours

 ConditionsComfort  
Time TempWeatherWind HumidityBarometerVisibility
7:00 PM
Mon, Mar 2
82 °FPassing clouds.9 mph74%29.89 "HgN/A
6:00 PM82 °FPassing clouds.7 mph79%29.86 "HgN/A
5:00 PM82 °FPassing clouds.9 mph79%29.86 "HgN/A
4:00 PM84 °FPassing clouds.10 mph74%29.83 "HgN/A
3:00 PM84 °FScattered clouds.7 mph70%29.86 "HgN/A
2:00 PM84 °FPartly sunny.8 mph70%29.86 "HgN/A
1:00 PM84 °FBroken clouds.10 mph66%29.89 "HgN/A
12:00 PM86 °FScattered clouds.10 mph70%29.92 "HgN/A
11:00 AM88 °FScattered clouds.10 mph66%29.92 "HgN/A
10:00 AM86 °FScattered clouds.8 mph70%29.95 "HgN/A
9:00 AM88 °FScattered clouds.9 mph66%29.95 "HgN/A
8:00 AM84 °FPartly sunny.10 mph74%29.95 "HgN/A
7:00 AM84 °FScattered clouds.12 mph70%29.92 "HgN/A
6:00 AM82 °FScattered clouds.10 mph79%29.89 "HgN/A
5:00 AM81 °FPassing clouds.10 mph84%29.86 "HgN/A
4:00 AM82 °FPassing clouds.12 mph79%29.86 "HgN/A
3:00 AM82 °FPassing clouds.10 mph79%29.86 "HgN/A
2:00 AM81 °FPassing clouds.9 mph84%29.86 "HgN/A
1:00 AM81 °FPassing clouds.9 mph84%29.89 "HgN/A
12:00 AM82 °FPassing clouds.7 mph79%29.92 "HgN/A
11:00 PM
Sun, Mar 1
82 °FPassing clouds.7 mph79%29.95 "HgN/A
10:00 PM82 °FPassing clouds.7 mph79%29.95 "HgN/A
9:00 PM82 °FPassing clouds.7 mph79%29.95 "HgN/A
8:00 PM82 °FPassing clouds.10 mph79%29.92 "HgN/A
Weather by CustomWeather, © 2015

See weather overviewHow to use our weather pages